Voltar ao catálogo

FENGYUN 1C DEB

AtivoPO
NORAD 37428·DEBRIS·🇨🇳 China

Lançado May 10, 1999 de Taiyuan Satellite Launch Center

Loading…

Próximas Passagens (próximas 24 horas)

TLE

EnvelhecendoSource: Space-Track

Época: Sep 7, 2026, 19:27 UTC

1 37428U 99025EGW 26250.81108563  .00003625  00000-0  12058-2 0  9990
2 37428  97.7019  90.3966 0054673   3.6369 356.5207 14.37341384672982

Acompanhe FENGYUN 1C DEB em tempo real com AllMySat

Download on the App Store